EW6712 Weather Reports


time (UTC)temp
C
wind
direction
speed
KPH
gust
KPH
rain 1hr
cm
rain 24hr
cm
rain mn
cm
humidity
%
barometer
mb
20260505224502 18 222 4.8 12.9 0.00 0.00 0.00 72 1015.2
20260505223602 19 232 4.8 9.7 0.00 0.00 0.00 69 1015.3
20260505222724 18 255 3.2 12.9 0.00 0.00 0.00 70 1015.3
20260505221802 18 240 4.8 12.9 0.00 0.00 0.00 72 1015.4
20260505220902 18 260 4.8 11.3 0.00 0.00 0.00 71 1015.5
20260505220003 19 214 3.2 11.3 0.00 0.00 0.00 68 1015.6
20260505215402 18 201 3.2 11.3 0.00 0.00 0.00 73 1015.7
20260505214502 18 240 3.2 11.3 0.00 0.00 0.00 71 1015.8
20260505213602 17 222 4.8 11.3 0.00 0.00 0.00 72 1015.8
20260505212723 17 246 3.2 8.0 0.00 0.00 0.00 72 1015.8
20260505211803 17 262 4.8 12.9 0.00 0.00 0.00 71 1016.0
20260505210923 17 235 4.8 14.5 0.00 0.00 0.00 74 1015.9
20260505210003 17 246 3.2 14.5 0.00 0.00 0.00 74 1015.9
20260505205402 16 247 3.2 6.4 0.00 0.00 0.00 76 1016.0
20260505204523 16 273 3.2 11.3 0.00 0.00 0.00 76 1016.1
20260505203603 15 230 3.2 9.7 0.00 0.00 0.00 77 1016.0
20260505202702 16 225 3.2 8.0 0.00 0.00 0.00 77 1016.0
20260505201802 15 253 3.2 11.3 0.00 0.00 0.00 77 1016.1
20260505200923 15 315 1.6 6.4 0.00 0.00 0.00 77 1016.2
20260505200002 15 211 3.2 6.4 0.00 0.00 0.00 77 1016.1
20260505195402 15 194 1.6 4.8 0.00 0.00 0.00 79 1016.1
20260505194502 15 187 3.2 6.4 0.00 0.00 0.00 80 1016.2
20260505193602 15 179 1.6 8.0 0.00 0.00 0.00 81 1016.3
20260505192702 15 200 3.2 8.0 0.00 0.00 0.00 80 1016.2
20260505191802 14 251 1.6 6.4 0.00 0.00 0.00 82 1016.4
20260505190923 14 258 1.6 6.4 0.00 0.00 0.00 84 1016.5
20260505190004 13 225 3.2 8.0 0.00 0.00 0.00 82 1016.3
20260505185402 13 223 1.6 8.0 0.00 0.00 0.00 83 1016.3
20260505184523 13 270 3.2 11.3 0.00 0.00 0.00 82 1016.3
20260505183602 13 269 3.2 9.7 0.00 0.00 0.00 84 1016.2
20260505182723 13 241 3.2 6.4 0.00 0.00 0.00 84 1016.2
20260505181803 13 229 3.2 6.4 0.00 0.00 0.00 84 1016.2
20260505180902 13 232 3.2 8.0 0.00 0.00 0.00 85 1016.0
20260505180002 13 290 1.6 4.8 0.00 0.00 0.00 87 1016.1
20260505175402 13 324 1.6 4.8 0.00 0.00 0.00 87 1016.1
20260505174502 13 326 1.6 4.8 0.00 0.00 0.00 87 1015.9
20260505173603 12 327 0.0 3.2 0.00 0.00 0.00 89 1016.0
20260505172723 12 317 1.6 4.8 0.00 0.00 0.00 88 1016.0
20260505171802 12 297 1.6 3.2 0.00 0.00 0.00 88 1016.0
20260505170902 12 298 0.0 4.8 0.00 0.00 0.00 89 1016.0
20260505170023 12 303 0.0 4.8 0.00 0.00 0.00 90 1016.0
20260505165402 12 304 0.0 3.2 0.00 0.00 0.00 90 1015.9
20260505164502 12 304 0.0 1.6 0.00 0.00 0.00 90 1015.9
20260505163623 11 304 0.0 3.2 0.00 0.00 0.00 91 1016.0
20260505162702 11 303 1.6 6.4 0.00 0.00 0.00 93 1016.1
20260505161802 11 19 0.0 4.8 0.00 0.00 0.00 94 1016.1
20260505160902 11 292 0.0 3.2 0.00 0.00 0.00 95 1016.1
20260505152702 10 230 0.0 1.6 0.00 0.00 0.00 96 1016.0
20260505151823 10 230 0.0 3.2 0.00 0.00 0.00 96 1015.9
20260505150924 10 299 1.6 4.8 0.00 0.00 0.00 96 1016.0
20260505124502 10 0 0.0 0.0 0.00 0.00 0.00 96 1015.2
20260505123623 10 342 0.0 1.6 0.00 0.00 0.00 96 1015.0
20260505122723 10 342 0.0 1.6 0.00 0.00 0.00 96 1015.0
20260505121802 10 342 0.0 1.6 0.00 0.00 0.00 96 1014.9
20260505120902 10 342 0.0 1.6 0.00 0.00 0.00 96 1014.9
20260505120002 10 342 0.0 1.6 0.00 0.00 0.00 95 1015.0
20260505115402 10 342 0.0 3.2 0.00 0.00 0.00 95 1014.9
20260505114502 10 342 0.0 3.2 0.00 0.00 0.00 95 1015.0
20260505113624 10 0 0.0 0.0 0.00 0.00 0.00 95 1015.0
20260505112702 10 0 0.0 0.0 0.00 0.00 0.00 95 1014.9
20260505111802 10 342 0.0 1.6 0.00 0.00 0.00 95 1015.0
20260505110902 10 342 0.0 1.6 0.00 0.00 0.00 95 1014.9
20260505101803 10 0 0.0 0.0 0.00 0.00 0.00 95 1014.7
20260505100902 10 0 0.0 0.0 0.00 0.00 0.00 95 1014.6
20260505100002 11 0 0.0 0.0 0.00 0.00 0.00 95 1014.6
20260505095402 11 0 0.0 0.0 0.00 0.00 0.00 95 1014.7
20260505094502 10 0 0.0 0.0 0.00 0.00 0.00 95 1014.7
20260505093604 10 0 0.0 0.0 0.00 0.00 0.00 95 1014.6
20260505092702 10 344 0.0 3.2 0.00 0.00 0.00 95 1014.8
20260505091802 11 0 0.0 0.0 0.00 0.00 0.00 95 1014.8
20260505090902 11 0 0.0 0.0 0.00 0.00 0.00 95 1014.7
20260505090002 11 0 0.0 0.0 0.00 0.00 0.00 95 1014.7
20260505085402 11 0 0.0 0.0 0.00 0.00 0.00 95 1014.6
20260505084502 11 0 0.0 0.0 0.00 0.00 0.00 95 1014.7
20260505083623 11 0 0.0 0.0 0.00 0.00 0.00 95 1014.7
20260505082703 11 344 0.0 1.6 0.00 0.00 0.00 95 1014.8
20260505081802 11 0 0.0 0.0 0.00 0.00 0.00 95 1014.7
20260505080902 11 0 0.0 0.0 0.00 0.00 0.00 94 1014.7
20260505080002 11 344 0.0 1.6 0.00 0.00 0.00 94 1014.9
20260505075402 11 344 0.0 1.6 0.00 0.00 0.00 94 1014.9
20260505074502 11 0 0.0 0.0 0.00 0.00 0.00 94 1014.9
20260505073603 11 330 0.0 4.8 0.00 0.00 0.00 94 1014.9
20260505072702 11 317 0.0 4.8 0.00 0.00 0.00 94 1015.0
20260505071802 11 260 0.0 3.2 0.00 0.00 0.00 93 1015.0
20260505070902 11 0 0.0 0.0 0.00 0.00 0.00 93 1015.0
20260505070002 11 260 0.0 1.6 0.00 0.00 0.00 92 1015.0
20260505065402 11 261 0.0 3.2 0.00 0.00 0.00 92 1015.0
20260505064503 11 295 0.0 3.2 0.00 0.00 0.00 91 1014.9
20260505063603 11 267 0.0 6.4 0.00 0.00 0.00 91 1014.8
20260505062702 11 300 0.0 3.2 0.00 0.00 0.00 90 1014.9
20260505061802 12 334 0.0 6.4 0.00 0.00 0.00 90 1014.8
20260505060902 12 316 0.0 3.2 0.00 0.00 0.00 89 1014.7
20260505060002 12 299 0.0 3.2 0.00 0.00 0.00 89 1014.7
20260505055402 12 309 0.0 3.2 0.00 0.00 0.00 89 1014.6
20260505054502 12 1 0.0 3.2 0.00 0.00 0.00 88 1014.6
20260505053623 12 37 0.0 3.2 0.00 0.00 0.00 88 1014.5
20260505052702 12 241 0.0 4.8 0.00 0.00 0.00 88 1014.4
20260505051802 12 258 1.6 6.4 0.00 0.00 0.00 88 1014.6
20260505050902 12 260 1.6 11.3 0.00 0.00 0.00 88 1014.5
20260505040902 12 267 0.0 3.2 0.00 0.00 0.00 86 1014.0
20260505040023 12 259 1.6 9.7 0.00 0.00 0.00 86 1013.9
20260505035402 12 241 1.6 6.4 0.00 0.00 0.00 86 1013.7
20260505034502 13 281 1.6 4.8 0.00 0.00 0.00 86 1013.8
20260505033602 13 318 1.6 4.8 0.00 0.00 0.00 86 1013.6
20260505032702 13 306 1.6 6.4 0.00 0.00 0.00 85 1013.5
20260505031802 13 300 1.6 3.2 0.00 0.00 0.00 84 1013.4
20260505030923 13 302 1.6 6.4 0.00 0.00 0.00 84 1013.3
20260505030002 13 272 1.6 4.8 0.00 0.00 0.00 84 1013.2
20260505025402 13 271 0.0 3.2 0.00 0.00 0.00 84 1013.2
20260505024502 13 282 1.6 4.8 0.00 0.00 0.00 84 1013.2
20260505023602 13 291 1.6 6.4 0.00 0.00 0.00 84 1013.1
20260505022702 14 297 3.2 8.0 0.00 0.00 0.00 83 1013.0
20260505021802 14 258 1.6 9.7 0.00 0.00 0.00 83 1012.9
20260505020923 14 252 3.2 11.3 0.00 0.00 0.00 82 1012.9
20260505020023 14 263 3.2 9.7 0.00 0.00 0.00 82 1012.9
20260505015402 15 264 3.2 12.9 0.00 0.00 0.00 81 1012.8
20260505014502 15 210 1.6 6.4 0.00 0.00 0.00 80 1013.0
20260505013602 15 209 1.6 6.4 0.00 0.00 0.00 80 1012.9
20260505012702 15 234 3.2 11.3 0.00 0.00 0.00 79 1013.0
20260505011802 15 223 3.2 11.3 0.00 0.00 0.00 79 1012.8
20260505010923 16 225 1.6 11.3 0.00 0.00 0.00 77 1012.8
20260505010002 16 245 3.2 11.3 0.00 0.00 0.00 77 1012.8
20260505005402 16 274 4.8 12.9 0.00 0.00 0.00 75 1012.9
20260505004502 17 282 3.2 12.9 0.00 0.00 0.00 73 1012.8
20260505003602 17 253 4.8 14.5 0.00 0.00 0.00 75 1012.8
20260505002702 16 241 4.8 11.3 0.00 0.00 0.00 74 1012.8
20260505001802 16 253 3.2 12.9 0.00 0.00 0.00 74 1012.7
20260505000902 16 248 4.8 16.1 0.00 0.00 0.00 75 1012.8
20260505000002 16 225 4.8 16.1 0.00 0.00 0.00 74 1012.9
20260504235403 17 217 3.2 8.0 0.00 0.00 0.00 74 1012.7
20260504234502 16 226 4.8 12.9 0.00 0.00 0.00 74 1012.9
20260504233623 17 250 3.2 12.9 0.00 0.00 0.00 73 1012.8
20260504232702 17 255 3.2 9.7 0.00 0.00 0.00 73 1012.9
20260504231823 17 268 3.2 11.3 0.00 0.00 0.00 73 1013.0
20260504230923 17 248 4.8 14.5 0.00 0.00 0.00 74 1013.0
20260504230002 17 245 4.8 17.7 0.00 0.00 0.00 71 1013.0
20260504225402 18 236 3.2 11.3 0.00 0.00 0.00 72 1013.1